BLOCK DM-SL R/B, 28627

Orbit data source: Space-Track

BLOCK DM-SL R/B, 28627 is space debris in HEO originally from a launch on Tue, 01 Mar 2005 UTC launched from the Sea Launch (SEAL). Debris objects in space refer to the collection of defunct objects orbiting the Earth. Examples of debris include non-operational satellites, rocket bodies, and fragments generated from explosions, collisions, or faulty payload assembly.

Loading next visibility...
BLOCK DM-SL R/B details
Identifier
28627, 2005-008B
Orbit
HEO
Last TLE update1 day ago
Origin
Flag of USSeaLaunch (US / SEAL)
ManufacturerRKKE
MissionSpacecraft
Bus & MotorBLOK DM2, 11D58M
Mass~3,070 kg wet, 3,070 kg dry
Launch date (UTC)
2005-03-01 (20 years ago)
Launch vehicleUnknown
Launch site
Sea Launch (SEAL)
Object type
Payload
Rocket body
Debris
Shape & HBRCyl, 6.3 m
Radar Cross Section23.684 m², Large (>1 m²)

Expand to show TLE details & history

TLE from 1 day ago
0 BLOCK DM-SL R/B
1 28627U 05008B   25035.10571799 -.00000155  00000-0  00000-0 0  9994
2 28627   0.2138 324.6967 6555064 161.5129 313.5540  2.13875468155785
Epoch: 2025-02-04T02:32Z
Definitive object data (Epoch: 2025-02-04T02:32:14.034Z)
Latitude0.0996°
Longitude-172.57434°
Altitude17,282.688 km
Speed4.246 km/s
True Right ascension23h 59m 59s
True Declination0° 05' 58"
Sunlit
Object was in daylight at TLE epoch
Visualization TLE readout
Latitude-0.17789°
Longitude86.04389°
Altitude19,498.105 km
Speed3.891 km/s
Apparent Right ascension17h 22m 59s
Apparent Declination-7° 42' 36"
Sunlit
Object is in daylight
Visualization observer readout
Local Sidereal Time06:08:17
Azimuth20.496° NNE
Elevation-56.236°
Doppler factor1
Orbital elements
Apogee altitude35,755.367 km
Perigee altitude2,389.405 km
Semi-major axis25,450.523 km
Eccentricity0.6555064
Inclination0.2138°
RAAN324.6967°
Arg. of periapsis161.5129°
True anomaly233.91222°
Mean anomaly313.554°
Eccentric anomaly276.21714°
Mean motion0.53456 °/min
BSTARUnknown
Orbital period673.45 mins
Loading maneuver chart data...
Loading historical data...
Loading historical data...
Loading historical data...
Loading historical data...
Loading historical data...
Loading historical data...
Loading historical data...
Other satellites on launch #8 in the year 2005 (2005-03-01 UTC)

BLOCK DM-SL R/B Visibility forecast

Observer location: undefined°, undefined

Span
Click to sort rows by Start time (UTC) header in descending order
Start Az.
Max El. time (UTC)
Max El. Az.
Max El.
End time (UTC)
End Az.
618 mins2025-02-05 14:11:30.241Z227.822° WSW2025-02-05 17:48:30.241Z187.377° SSW34.338°2025-02-06 00:29:30.241Z146.109° SSE
|